TimeEDT,TemperatureF,Dew PointF,Humidity,Sea Level PressureIn,VisibilityMPH,Wind Direction,Wind SpeedMPH,Gust SpeedMPH,PrecipitationIn,Events,Conditions,WindDirDegrees,DateUTC
12:15 AM,69.4,68.9,98,30.11,7.0,Calm,Calm,-,N/A,,Mostly Cloudy,0,2013-07-20 04:15:00
12:35 AM,68.9,68.2,98,30.11,5.0,Calm,Calm,-,N/A,,Scattered Clouds,0,2013-07-20 04:35:00
12:55 AM,68.5,68.0,98,30.11,7.0,Calm,Calm,-,N/A,,Scattered Clouds,0,2013-07-20 04:55:00
1:15 AM,68.0,67.5,98,30.11,4.0,Calm,Calm,-,N/A,,Clear,0,2013-07-20 05:15:00
1:35 AM,67.5,67.3,99,30.10,3.0,Calm,Calm,-,N/A,,Scattered Clouds,0,2013-07-20 05:35:00
1:55 AM,67.5,67.1,99,30.10,4.0,Calm,Calm,-,N/A,,Mostly Cloudy,0,2013-07-20 05:55:00
2:15 AM,67.6,67.5,99,30.09,4.0,Calm,Calm,-,N/A,,Mostly Cloudy,0,2013-07-20 06:15:00
2:35 AM,68.0,67.6,99,30.08,1.0,Calm,Calm,-,N/A,,Overcast,0,2013-07-20 06:35:00
2:55 AM,67.6,67.5,99,30.08,1.0,Calm,Calm,-,N/A,,Overcast,0,2013-07-20 06:55:00
3:15 AM,67.5,67.5,100,30.08,1.8,Calm,Calm,-,N/A,,Overcast,0,2013-07-20 07:15:00
3:35 AM,67.6,67.6,100,30.08,0.5,Calm,Calm,-,N/A,Fog,Fog,0,2013-07-20 07:35:00
3:55 AM,67.1,67.1,100,30.08,4.0,Calm,Calm,-,N/A,,Overcast,0,2013-07-20 07:55:00
4:15 AM,67.3,67.1,99,30.08,4.0,Calm,Calm,-,N/A,,Overcast,0,2013-07-20 08:15:00
4:35 AM,67.3,67.1,99,30.08,4.0,Calm,Calm,-,N/A,Rain,Rain,0,2013-07-20 08:35:00
4:55 AM,67.5,67.3,99,30.07,1.0,NE,3.5,-,N/A,Rain,Heavy Rain,50,2013-07-20 08:55:00
5:15 AM,67.6,67.5,99,30.08,4.0,ESE,4.6,-,N/A,Rain,Light Rain,120,2013-07-20 09:15:00
5:35 AM,67.6,67.3,99,30.08,7.0,Calm,Calm,-,N/A,,Overcast,0,2013-07-20 09:35:00
5:55 AM,68.0,67.3,98,30.08,7.0,ENE,3.5,-,N/A,,Overcast,60,2013-07-20 09:55:00
6:15 AM,68.0,67.3,98,30.08,7.0,Calm,Calm,-,N/A,,Mostly Cloudy,0,2013-07-20 10:15:00
6:35 AM,68.0,67.5,98,30.09,7.0,Calm,Calm,-,N/A,,Mostly Cloudy,0,2013-07-20 10:35:00
6:55 AM,67.6,67.5,99,30.10,3.0,Calm,Calm,-,N/A,,Mostly Cloudy,0,2013-07-20 10:55:00
7:15 AM,68.0,67.8,99,30.10,4.0,Calm,Calm,-,N/A,,Overcast,0,2013-07-20 11:15:00
7:35 AM,68.2,68.0,99,30.10,3.0,Calm,Calm,-,N/A,,Mostly Cloudy,0,2013-07-20 11:35:00
7:55 AM,68.9,68.2,98,30.10,4.0,Calm,Calm,-,N/A,,Scattered Clouds,0,2013-07-20 11:55:00
8:15 AM,68.9,68.0,97,30.10,5.0,Calm,Calm,-,N/A,,Mostly Cloudy,0,2013-07-20 12:15:00
8:35 AM,69.3,68.4,97,30.11,7.0,Calm,Calm,-,N/A,,Overcast,0,2013-07-20 12:35:00
8:55 AM,70.0,68.5,95,30.10,10.0,Calm,Calm,-,N/A,,Overcast,0,2013-07-20 12:55:00
9:15 AM,71.4,69.6,94,30.10,7.0,Calm,Calm,-,N/A,,Mostly Cloudy,0,2013-07-20 13:15:00
9:35 AM,71.8,69.3,92,30.11,10.0,Calm,Calm,-,N/A,,Mostly Cloudy,0,2013-07-20 13:35:00
9:55 AM,73.2,69.6,88,30.11,10.0,Calm,Calm,-,N/A,,Mostly Cloudy,0,2013-07-20 13:55:00
10:15 AM,75.0,70.2,85,30.10,10.0,Calm,Calm,-,N/A,,Scattered Clouds,0,2013-07-20 14:15:00
10:35 AM,77.2,70.3,79,30.10,10.0,Calm,Calm,-,N/A,,Scattered Clouds,0,2013-07-20 14:35:00
10:55 AM,78.3,70.3,77,30.10,10.0,Calm,Calm,-,N/A,,Scattered Clouds,0,2013-07-20 14:55:00
11:15 AM,80.1,70.3,72,30.10,10.0,Calm,Calm,-,N/A,,Clear,0,2013-07-20 15:15:00
11:35 AM,79.5,70.3,73,30.09,-9999.0,Calm,Calm,-,N/A,,Clear,0,2013-07-20 15:35:00
11:55 AM,80.6,70.0,70,30.08,-9999.0,West,4.6,-,N/A,,Clear,260,2013-07-20 15:55:00
12:15 PM,81.7,69.8,67,30.08,10.0,Calm,Calm,-,N/A,,Clear,0,2013-07-20 16:15:00
12:35 PM,82.8,69.8,65,30.07,10.0,Calm,Calm,-,N/A,,Clear,0,2013-07-20 16:35:00
12:55 PM,83.8,70.9,65,30.07,10.0,WNW,4.6,-,N/A,,Clear,300,2013-07-20 16:55:00
1:15 PM,78.4,68.4,71,30.06,10.0,North,6.9,-,N/A,,Mostly Cloudy,350,2013-07-20 17:15:00
1:35 PM,79.9,67.6,66,30.05,10.0,North,4.6,-,N/A,,Mostly Cloudy,10,2013-07-20 17:35:00
1:55 PM,83.8,67.3,57,30.04,-9999.0,Calm,Calm,-,N/A,,Mostly Cloudy,0,2013-07-20 17:55:00
2:15 PM,82.0,71.1,69,30.04,10.0,SSW,6.9,-,N/A,,Scattered Clouds,210,2013-07-20 18:15:00
2:35 PM,82.6,72.1,71,30.04,-9999.0,South,6.9,-,N/A,,Scattered Clouds,180,2013-07-20 18:35:00
2:55 PM,82.9,72.1,70,30.03,-9999.0,South,6.9,-,N/A,,Clear,190,2013-07-20 18:55:00
3:15 PM,85.1,68.2,57,30.02,10.0,SSW,5.8,-,N/A,,Clear,200,2013-07-20 19:15:00
3:35 PM,85.1,68.9,58,30.01,10.0,SSW,5.8,-,N/A,,Clear,200,2013-07-20 19:35:00
3:55 PM,85.3,68.4,57,30.01,-9999.0,Calm,Calm,-,N/A,,Clear,0,2013-07-20 19:55:00
4:15 PM,85.8,69.3,58,30.00,10.0,SW,4.6,-,N/A,,Clear,220,2013-07-20 20:15:00
4:35 PM,84.4,71.2,65,29.99,10.0,SW,4.6,-,N/A,,Scattered Clouds,230,2013-07-20 20:35:00
4:55 PM,84.6,69.3,60,29.99,10.0,Calm,Calm,-,N/A,,Clear,0,2013-07-20 20:55:00
5:15 PM,85.8,70.7,60,30.00,10.0,SW,5.8,-,N/A,,Scattered Clouds,230,2013-07-20 21:15:00
5:35 PM,86.0,71.2,61,30.00,10.0,SW,8.1,-,N/A,,Scattered Clouds,230,2013-07-20 21:35:00
5:55 PM,84.4,70.9,64,30.00,10.0,South,5.8,-,N/A,,Scattered Clouds,190,2013-07-20 21:55:00
6:15 PM,82.9,70.9,67,29.99,10.0,South,8.1,-,N/A,,Mostly Cloudy,190,2013-07-20 22:15:00
6:35 PM,83.3,67.5,59,29.99,-9999.0,South,4.6,-,N/A,,Scattered Clouds,180,2013-07-20 22:35:00
6:55 PM,83.3,68.5,61,29.99,10.0,East,3.5,-,N/A,,Scattered Clouds,100,2013-07-20 22:55:00
7:15 PM,81.3,68.9,66,29.99,10.0,SE,5.8,-,N/A,,Mostly Cloudy,140,2013-07-20 23:15:00
7:35 PM,78.8,67.5,68,30.00,10.0,Calm,Calm,-,N/A,,Overcast,0,2013-07-20 23:35:00
7:55 PM,77.5,67.8,72,30.00,10.0,ENE,3.5,-,N/A,,Scattered Clouds,70,2013-07-20 23:55:00
8:15 PM,76.6,68.9,77,30.01,10.0,WSW,15.0,20.7,N/A,,Mostly Cloudy,250,2013-07-21 00:15:00
8:35 PM,72.0,66.2,82,30.03,10.0,SW,5.8,-,N/A,Rain,Light Rain,230,2013-07-21 00:35:00
8:55 PM,70.3,67.3,90,30.03,10.0,Calm,Calm,-,N/A,,Light Drizzle,0,2013-07-21 00:55:00
9:15 PM,70.7,67.6,90,30.04,10.0,Calm,Calm,-,N/A,Rain,Light Rain,0,2013-07-21 01:15:00
9:35 PM,71.1,67.3,88,30.05,10.0,North,3.5,-,N/A,,Mostly Cloudy,10,2013-07-21 01:35:00
9:55 PM,70.7,68.0,91,30.06,10.0,WNW,5.8,-,N/A,,Overcast,300,2013-07-21 01:55:00
10:15 PM,69.8,68.5,96,30.07,10.0,Calm,Calm,-,N/A,,Overcast,0,2013-07-21 02:15:00
10:35 PM,69.8,68.5,96,30.08,10.0,Calm,Calm,-,N/A,,Overcast,0,2013-07-21 02:35:00
10:55 PM,69.3,68.5,98,30.08,10.0,Calm,Calm,-,N/A,,Overcast,0,2013-07-21 02:55:00
11:15 PM,69.4,68.7,98,30.09,10.0,Calm,Calm,-,N/A,,Overcast,0,2013-07-21 03:15:00
11:35 PM,69.4,68.7,98,30.08,10.0,Calm,Calm,-,N/A,,Overcast,0,2013-07-21 03:35:00
11:55 PM,68.9,68.4,98,30.08,7.0,Calm,Calm,-,N/A,,Mostly Cloudy,0,2013-07-21 03:55:00